Location: Gu�tanj
(46.5431°N, 14.9692°E)
Time: 15:00:26
(UTC+00:00)

H-2A R/B - Pass Details

Date: 03 March 2021
Orbit: 732 x 837 km, 98.2° (Epoch: 18 April)

Event Time Altitude Azimuth Distance (km) Brightness Sun altitude
Rises 18:00:09 0° 177° (S) 3,363 5.3 -13.0°
Reaches altitude 10° 18:02:32 10° 182° (S) 2,440 4.6 -13.4°
Maximum altitude 18:07:52 56° 260° (W) 995 2.9 -14.3°
Drops below altitude 10° 18:13:14 10° 338° (NNW) 2,456 5.0 -15.3°
Sets 18:15:39 0° 343° (NNW) 3,388 5.7 -15.7°
